Hourly Weather Rutkowice

Today, 22 April, Thursday

Time Temperature Precipitation Wind Pressure Humidity
00:00 +6°C° 0.1 mm 4 mps 747 mmHg 85%
01:00 +5°C° 0 mm 4 mps 747 mmHg 88%
02:00 +4°C° 0.5 mm 4 mps 747 mmHg 88%
03:00 +4°C° 0.5 mm 4 mps 747 mmHg 88%
04:00 +3°C° 0.5 mm 4 mps 747 mmHg 87%
05:00 +3°C° 0 mm 4 mps 748 mmHg 83%
06:00 +2°C° 0 mm 5 mps 748 mmHg 80%
07:00 +2°C° 0 mm 6 mps 748 mmHg 76%
08:00 +3°C° 0 mm 6 mps 749 mmHg 72%
09:00 +3°C° 0 mm 7 mps 749 mmHg 69%
10:00 +4°C° 0 mm 7 mps 749 mmHg 65%
11:00 +5°C° 0.1 mm 7 mps 749 mmHg 63%
12:00 +5°C° 0.1 mm 7 mps 749 mmHg 60%
13:00 +5°C° 0.1 mm 7 mps 750 mmHg 57%
14:00 +6°C° 0.2 mm 7 mps 749 mmHg 58%
15:00 +6°C° 0.2 mm 7 mps 749 mmHg 59%
16:00 +7°C° 0.2 mm 6 mps 749 mmHg 60%
17:00 +5°C° 0.1 mm 6 mps 749 mmHg 59%
18:00 +5°C° 0.1 mm 5 mps 750 mmHg 59%
19:00 +3°C° 0.1 mm 5 mps 750 mmHg 58%
20:00 +3°C° 0 mm 4 mps 750 mmHg 61%
21:00 +1°C° 0 mm 4 mps 750 mmHg 65%
22:00 0°C° 0 mm 4 mps 751 mmHg 68%
23:00 0°C° 0 mm 4 mps 751 mmHg 70%

Tomorrow, 23 April, Friday

Time Temperature Precipitation Wind Pressure Humidity
00:00 0°C° 0 mm 4 mps 751 mmHg 73%
01:00 0°C° 0 mm 5 mps 751 mmHg 75%
02:00 -1°C° 0 mm 4 mps 751 mmHg 77%
03:00 -1°C° 0 mm 4 mps 751 mmHg 79%
04:00 -2°C° 0 mm 4 mps 751 mmHg 80%
05:00 -1°C° 0 mm 4 mps 752 mmHg 77%
06:00 +1°C° 0 mm 5 mps 752 mmHg 74%
07:00 +2°C° 0 mm 6 mps 752 mmHg 71%
08:00 +3°C° 0.1 mm 6 mps 752 mmHg 66%
09:00 +4°C° 0.1 mm 6 mps 753 mmHg 61%
10:00 +7°C° 0.1 mm 6 mps 753 mmHg 56%
11:00 +6°C° 0.4 mm 7 mps 753 mmHg 56%
12:00 +6°C° 0.4 mm 7 mps 753 mmHg 55%
13:00 +6°C° 0.4 mm 7 mps 753 mmHg 55%
14:00 +6°C° 0.5 mm 7 mps 753 mmHg 63%
15:00 +5°C° 0.5 mm 6 mps 753 mmHg 70%
16:00 +4°C° 0.5 mm 6 mps 753 mmHg 78%
17:00 +3°C° 0.5 mm 5 mps 754 mmHg 77%
18:00 +4°C° 0.5 mm 4 mps 754 mmHg 77%
19:00 +3°C° 0.5 mm 3 mps 754 mmHg 76%
20:00 +2°C° 0 mm 3 mps 754 mmHg 75%
21:00 +1°C° 0 mm 3 mps 755 mmHg 73%
22:00 0°C° 0 mm 3 mps 755 mmHg 72%
23:00 -1°C° 0 mm 3 mps 755 mmHg 74%

Day after tomorrow, 24 April, Saturday

Time Temperature Precipitation Wind Pressure Humidity
00:00 -1°C° 0 mm 3 mps 755 mmHg 76%
01:00 -1°C° 0 mm 3 mps 755 mmHg 78%
02:00 -1°C° 0 mm 3 mps 755 mmHg 80%
03:00 -2°C° 0 mm 3 mps 755 mmHg 81%
04:00 -2°C° 0 mm 3 mps 755 mmHg 83%
05:00 0°C° 0 mm 3 mps 755 mmHg 77%
06:00 0°C° 0 mm 4 mps 755 mmHg 71%
07:00 +3°C° 0 mm 4 mps 755 mmHg 65%
08:00 +4°C° 0 mm 4 mps 755 mmHg 58%
09:00 +6°C° 0 mm 4 mps 755 mmHg 52%
10:00 +7°C° 0 mm 5 mps 755 mmHg 45%
11:00 +8°C° 0 mm 5 mps 755 mmHg 43%
12:00 +8°C° 0 mm 5 mps 754 mmHg 42%
13:00 +9°C° 0 mm 5 mps 754 mmHg 40%
14:00 +9°C° 0 mm 5 mps 754 mmHg 42%
15:00 +9°C° 0 mm 5 mps 753 mmHg 43%
16:00 +9°C° 0 mm 5 mps 753 mmHg 44%
17:00 +7°C° 0.1 mm 5 mps 753 mmHg 55%
18:00 +5°C° 0.1 mm 4 mps 754 mmHg 65%
19:00 +3°C° 0.1 mm 4 mps 754 mmHg 76%
20:00 +2°C° 0 mm 3 mps 754 mmHg 77%
21:00 +2°C° 0 mm 2 mps 754 mmHg 78%
22:00 +3°C° 0 mm 1 mps 754 mmHg 79%
23:00 +3°C° 0 mm 1 mps 754 mmHg 78%

25 April, Sunday

Time Temperature Precipitation Wind Pressure Humidity
00:00 +3°C° 0 mm 1 mps 754 mmHg 77%
01:00 +2°C° 0 mm 1 mps 754 mmHg 76%
02:00 +1°C° 0 mm 2 mps 754 mmHg 79%
03:00 -1°C° 0 mm 2 mps 754 mmHg 82%
04:00 -1°C° 0 mm 3 mps 754 mmHg 85%
05:00 0°C° 0 mm 3 mps 754 mmHg 78%
06:00 0°C° 0 mm 4 mps 754 mmHg 70%
07:00 +1°C° 0 mm 4 mps 754 mmHg 63%
08:00 +3°C° 0 mm 5 mps 754 mmHg 56%
09:00 +5°C° 0 mm 5 mps 754 mmHg 49%
10:00 +5°C° 0 mm 6 mps 754 mmHg 41%
11:00 +5°C° 0 mm 6 mps 753 mmHg 40%
12:00 +6°C° 0 mm 7 mps 753 mmHg 39%
13:00 +6°C° 0 mm 7 mps 753 mmHg 37%
14:00 +6°C° 0 mm 7 mps 753 mmHg 39%
15:00 +6°C° 0 mm 7 mps 753 mmHg 41%
16:00 +6°C° 0 mm 7 mps 753 mmHg 43%
17:00 +4°C° 0 mm 6 mps 753 mmHg 46%
18:00 +3°C° 0 mm 5 mps 753 mmHg 49%
19:00 +1°C° 0 mm 4 mps 753 mmHg 52%
20:00 +1°C° 0 mm 3 mps 753 mmHg 56%
21:00 0°C° 0 mm 3 mps 753 mmHg 60%
22:00 -1°C° 0 mm 2 mps 754 mmHg 63%
23:00 -1°C° 0 mm 2 mps 753 mmHg 64%

26 April, Monday

Time Temperature Precipitation Wind Pressure Humidity
00:00 -2°C° 0 mm 2 mps 753 mmHg 64%
01:00 -2°C° 0 mm 2 mps 753 mmHg 65%
02:00 -2°C° 0 mm 3 mps 753 mmHg 67%
03:00 -2°C° 0 mm 3 mps 752 mmHg 68%
04:00 -2°C° 0 mm 3 mps 752 mmHg 70%
05:00 -1°C° 0 mm 3 mps 752 mmHg 67%
06:00 0°C° 0 mm 4 mps 752 mmHg 64%
07:00 +3°C° 0 mm 4 mps 752 mmHg 60%
08:00 +4°C° 0 mm 4 mps 752 mmHg 54%
09:00 +6°C° 0 mm 4 mps 752 mmHg 48%
10:00 +7°C° 0 mm 5 mps 752 mmHg 42%
11:00 +8°C° 0 mm 5 mps 751 mmHg 40%
12:00 +8°C° 0 mm 4 mps 751 mmHg 38%
13:00 +10°C° 0 mm 4 mps 750 mmHg 36%
14:00 +10°C° 0 mm 4 mps 750 mmHg 37%
15:00 +10°C° 0 mm 4 mps 750 mmHg 38%
16:00 +10°C° 0 mm 4 mps 750 mmHg 39%
17:00 +8°C° 0 mm 3 mps 750 mmHg 46%
18:00 +7°C° 0 mm 3 mps 750 mmHg 53%
19:00 +5°C° 0 mm 2 mps 749 mmHg 60%
20:00 +4°C° 0 mm 2 mps 750 mmHg 62%
21:00 +3°C° 0 mm 2 mps 750 mmHg 65%
22:00 +3°C° 0 mm 2 mps 750 mmHg 68%
23:00 +2°C° 0 mm 2 mps 750 mmHg 71%

27 April, Tuesday

Time Temperature Precipitation Wind Pressure Humidity
00:00 +1°C° 0 mm 2 mps 750 mmHg 75%
01:00 +2°C° 0 mm 1 mps 750 mmHg 78%
02:00 -1°C° 0 mm 2 mps 750 mmHg 80%
03:00 -1°C° 0 mm 2 mps 749 mmHg 82%
04:00 -1°C° 0 mm 2 mps 749 mmHg 84%
05:00 +1°C° 0 mm 2 mps 749 mmHg 78%
06:00 +3°C° 0 mm 2 mps 749 mmHg 71%
07:00 +4°C° 0 mm 2 mps 749 mmHg 65%
08:00 +6°C° 0 mm 2 mps 749 mmHg 60%
09:00 +7°C° 0 mm 2 mps 749 mmHg 55%
10:00 +9°C° 0 mm 2 mps 749 mmHg 50%
11:00 +10°C° 0 mm 2 mps 748 mmHg 48%
12:00 +10°C° 0 mm 2 mps 748 mmHg 46%
13:00 +12°C° 0 mm 2 mps 747 mmHg 44%
14:00 +12°C° 0 mm 2 mps 747 mmHg 45%
15:00 +11°C° 0 mm 3 mps 747 mmHg 46%
16:00 +11°C° 0 mm 3 mps 746 mmHg 47%
17:00 +9°C° 0 mm 3 mps 746 mmHg 55%
18:00 +7°C° 0 mm 4 mps 746 mmHg 62%
19:00 +5°C° 0 mm 4 mps 746 mmHg 70%
20:00 +5°C° 0 mm 4 mps 746 mmHg 71%
21:00 +3°C° 0 mm 5 mps 746 mmHg 73%
22:00 +3°C° 0 mm 5 mps 746 mmHg 75%
23:00 +2°C° 0 mm 5 mps 746 mmHg 75%
Show more